Pine Bluffs Muni, Pine Bluffs, WY

12:22 AM MDT on March 25, 2017 (GMT -0600)
Pine Bluffs Muni, Pine Bluffs

Weather History for K82V - May, 2014

Change the Weather History Date:

Friday, May 2, 2014

  Actual Average (KCYS) Record (KCYS)
Temperature  
Mean Temperature 50 °F -  
Max Temperature 71 °F 59 °F 84 °F (1879)
Min Temperature 28 °F 34 °F 9 °F (2013)
Degree Days  
Heating Degree Days 16    
Moisture  
Dew Point 31 °F    
Average Humidity 53    
Maximum Humidity 93    
Minimum Humidity 20    
Precipitation  
Precipitation 0.00 in - - ()
Sea Level Pressure  
Sea Level Pressure 30.00 in    
Wind  
Wind Speed 8 mph (WNW)    
Max Wind Speed 28 mph    
Max Gust Speed 33 mph    
Visibility 10 miles    
Events Rain    
Averages and records for this station are not official NWS values.
T = Trace of Precipitation, MM = Missing Value Source: NWS Daily Summary

Daily Weather History Graph

Daily Weather History Graph

Search for Another Location

Airport or City:

Trip Planner

Search our weather history database for the weather conditions in past years. The results will help you decide how hot, cold, wet, or windy it might be!

Date:

Astronomy

May. 02, 2014 Rise Set
Actual Time 5:52 AM MDT 7:54 PM MDT
Civil Twilight 5:22 AM MDT 8:24 PM MDT
Nautical Twilight 4:46 AM MDT 9:01 PM MDT
Astronomical Twilight 4:06 AM MDT 9:41 PM MDT
Moon 8:31 AM MDT (5/2) 11:19 PM MDT (5/2)
Length of Visible Light 15h 01m
Length of Day
14h 01m
Waxing Crescent, 13% of the Moon is Illuminated
May 2
Waxing Crescent
May 6
First Quarter
May 14
Full
May 21
Last Quarter
May 28
New

Hourly Weather History & Observations

Time (MDT) Temp. Windchill Dew Point Humidity Pressure Visibility Wind Dir Wind Speed Gust Speed Precip Events Conditions
12:15 AM 32.0 °F 28.7 °F 28.4 °F 87% 30.12 in 10.0 mi South 3.5 mph - N/A   Clear
12:35 AM 32.0 °F 26.4 °F 28.4 °F 87% 30.12 in 10.0 mi SSW 5.8 mph - N/A   Clear
12:55 AM 30.2 °F 23.4 °F 28.4 °F 93% 30.12 in 10.0 mi South 6.9 mph - N/A   Clear
1:15 AM 32.0 °F 25.6 °F 28.4 °F 87% 30.12 in 10.0 mi SSW 6.9 mph - N/A   Clear
1:35 AM 30.2 °F 25.4 °F 28.4 °F 93% 30.11 in 10.0 mi SSW 4.6 mph - N/A   Clear
1:55 AM 30.2 °F 24.3 °F 26.6 °F 86% 30.10 in 10.0 mi South 5.8 mph - N/A   Clear
2:15 AM 30.2 °F - 26.6 °F 86% 30.09 in 10.0 mi Calm Calm - N/A   Clear
2:35 AM 30.2 °F - 26.6 °F 86% 30.09 in 10.0 mi Calm Calm - N/A   Clear
2:55 AM 28.4 °F - 26.6 °F 93% 30.08 in 10.0 mi Calm Calm - N/A   Clear
3:15 AM 30.2 °F 26.7 °F 26.6 °F 86% 30.07 in 10.0 mi WSW 3.5 mph - N/A   Clear
3:35 AM 28.4 °F 24.6 °F 26.6 °F 93% 30.07 in 10.0 mi South 3.5 mph - N/A   Clear
3:55 AM 28.4 °F 23.3 °F 24.8 °F 86% 30.07 in 10.0 mi South 4.6 mph - N/A   Clear
4:15 AM 28.4 °F 22.2 °F 26.6 °F 93% 30.07 in 10.0 mi SSW 5.8 mph - N/A   Clear
4:35 AM 30.2 °F 26.7 °F 26.6 °F 86% 30.07 in 10.0 mi West 3.5 mph - N/A   Clear
4:55 AM 30.2 °F 24.3 °F 26.6 °F 86% 30.06 in 10.0 mi WSW 5.8 mph - N/A   Clear
5:15 AM 32.0 °F 27.5 °F 26.6 °F 80% 30.06 in 10.0 mi WSW 4.6 mph - N/A   Clear
5:35 AM 32.0 °F 27.5 °F 26.6 °F 80% 30.05 in 10.0 mi SW 4.6 mph - N/A   Clear
5:55 AM 30.2 °F 25.4 °F 26.6 °F 86% 30.05 in 10.0 mi SSW 4.6 mph - N/A   Clear
6:15 AM 32.0 °F - 28.4 °F 87% 30.05 in 10.0 mi Calm Calm - N/A   Clear
6:35 AM 32.0 °F - 28.4 °F 87% 30.05 in 10.0 mi Calm Calm - N/A   Clear
6:55 AM 37.4 °F - 30.2 °F 75% 30.05 in 10.0 mi Calm Calm - N/A   Clear
7:15 AM 41.0 °F 39.0 °F 32.0 °F 70% 30.05 in 10.0 mi SSW 3.5 mph - N/A   Clear
7:35 AM 44.6 °F 38.4 °F 32.0 °F 61% 30.05 in 10.0 mi NW 12.7 mph - N/A   Clear
7:55 AM 51.8 °F - 32.0 °F 47% 30.04 in 10.0 mi NW 13.8 mph 20.7 mph N/A   Clear
8:15 AM 51.8 °F - 32.0 °F 47% 30.04 in 10.0 mi WNW 16.1 mph - N/A   Clear
8:35 AM 55.4 °F - 32.0 °F 41% 30.04 in 10.0 mi NW 13.8 mph - N/A   Clear
8:55 AM 57.2 °F - 32.0 °F 38% 30.04 in 10.0 mi WNW 15.0 mph - N/A   Clear
9:15 AM 59.0 °F - 32.0 °F 36% 30.03 in 10.0 mi NW 17.3 mph 21.9 mph N/A   Clear
9:35 AM 60.8 °F - 32.0 °F 34% 30.03 in 10.0 mi NW 17.3 mph 23.0 mph N/A   Clear
9:55 AM 62.6 °F - 32.0 °F 32% 30.03 in 10.0 mi NW 17.3 mph 24.2 mph N/A   Clear
10:15 AM 64.4 °F - 30.2 °F 28% 30.02 in 10.0 mi WNW 20.7 mph 27.6 mph N/A   Clear
10:35 AM 64.4 °F - 30.2 °F 28% 30.02 in 10.0 mi NW 16.1 mph 24.2 mph N/A   Clear
11:15 AM 68.0 °F - 28.4 °F 23% 30.01 in 10.0 mi NNW 20.7 mph 28.8 mph N/A   Clear
11:35 AM 68.0 °F - 28.4 °F 23% 30.01 in 10.0 mi WNW 19.6 mph 26.5 mph N/A   Clear
11:55 AM 68.0 °F - 28.4 °F 23% 30.00 in 10.0 mi NW 13.8 mph 26.5 mph N/A   Clear
12:15 PM 69.8 °F - 28.4 °F 21% 30.00 in 10.0 mi WNW 19.6 mph 31.1 mph N/A   Clear
12:35 PM 69.8 °F - 28.4 °F 21% 29.99 in 10.0 mi NW 21.9 mph 29.9 mph N/A   Clear
12:55 PM 69.8 °F - 30.2 °F 23% 29.98 in 10.0 mi NNW 19.6 mph 31.1 mph N/A   Clear
1:15 PM 69.8 °F - 30.2 °F 23% 29.97 in 10.0 mi NW 23.0 mph 27.6 mph N/A   Clear
1:35 PM 71.6 °F - 28.4 °F 20% 29.96 in 10.0 mi NW 19.6 mph 31.1 mph N/A   Clear
1:55 PM 69.8 °F - 28.4 °F 21% 29.96 in 10.0 mi WNW 16.1 mph 29.9 mph N/A   Clear
2:15 PM 71.6 °F - 28.4 °F 20% 29.96 in 10.0 mi NW 19.6 mph 32.2 mph N/A   Clear
2:35 PM 71.6 °F - 30.2 °F 22% 29.95 in 10.0 mi NNW 21.9 mph 28.8 mph N/A   Clear
2:55 PM 71.6 °F - 30.2 °F 22% 29.94 in 10.0 mi NNW 25.3 mph 31.1 mph N/A   Clear
3:15 PM 71.6 °F - 30.2 °F 22% 29.94 in 10.0 mi NNW 21.9 mph 29.9 mph N/A   Clear
3:35 PM 71.6 °F - 30.2 °F 22% 29.94 in 10.0 mi NW 13.8 mph 28.8 mph N/A   Scattered Clouds
3:55 PM 71.6 °F - 30.2 °F 22% 29.93 in 10.0 mi NW 17.3 mph 26.5 mph N/A   Scattered Clouds
4:15 PM 69.8 °F - 30.2 °F 23% 29.93 in 10.0 mi NW 18.4 mph 23.0 mph N/A   Scattered Clouds
4:35 PM 69.8 °F - 30.2 °F 23% 29.93 in 10.0 mi NW 12.7 mph - N/A   Scattered Clouds
4:55 PM 69.8 °F - 30.2 °F 23% 29.92 in 10.0 mi NNW 16.1 mph - N/A   Scattered Clouds
5:15 PM 69.8 °F - 30.2 °F 23% 29.92 in 10.0 mi NNW 12.7 mph - N/A   Scattered Clouds
5:35 PM 71.6 °F - 30.2 °F 22% 29.91 in 10.0 mi NNW 16.1 mph - N/A   Clear
5:55 PM 68.0 °F - 32.0 °F 26% 29.91 in 10.0 mi NNW 9.2 mph - N/A   Scattered Clouds
6:15 PM 68.0 °F - 32.0 °F 26% 29.91 in 10.0 mi North 6.9 mph - N/A   Scattered Clouds
6:35 PM 66.2 °F - 32.0 °F 28% 29.91 in 10.0 mi NNW 4.6 mph - N/A   Scattered Clouds
6:55 PM 64.4 °F - 32.0 °F 30% 29.94 in 10.0 mi West 27.6 mph 33.4 mph N/A   Overcast
7:15 PM 62.6 °F - 33.8 °F 34% 29.94 in 10.0 mi NE 3.5 mph 10.4 mph N/A Rain Light Rain
7:35 PM 62.6 °F - 32.0 °F 32% 29.93 in 10.0 mi South 3.5 mph - N/A   Scattered Clouds
7:55 PM 59.0 °F - 33.8 °F 39% 29.92 in 10.0 mi SSE 6.9 mph - N/A   Scattered Clouds
8:15 PM 53.6 °F - 35.6 °F 51% 29.92 in 10.0 mi ESE 6.9 mph - N/A   Clear
8:35 PM 51.8 °F - 35.6 °F 54% 29.93 in 10.0 mi Calm Calm - N/A   Clear
8:55 PM 50.0 °F - 35.6 °F 58% 29.94 in 10.0 mi Calm Calm - N/A   Scattered Clouds
9:15 PM 50.0 °F - 35.6 °F 58% 29.95 in 10.0 mi Calm Calm - N/A   Clear
9:35 PM 46.4 °F - 35.6 °F 66% 29.95 in 10.0 mi Calm Calm - N/A   Clear
9:55 PM 46.4 °F - 35.6 °F 66% 29.96 in 10.0 mi Calm Calm - N/A   Clear
10:15 PM 42.8 °F - 35.6 °F 76% 29.96 in 10.0 mi Calm Calm - N/A   Scattered Clouds
10:35 PM 42.8 °F - 35.6 °F 76% 29.97 in 10.0 mi Calm Calm - N/A   Scattered Clouds
10:55 PM 42.8 °F 40.1 °F 35.6 °F 76% 29.97 in 10.0 mi WNW 4.6 mph - N/A   Scattered Clouds
11:15 PM 46.4 °F - 37.4 °F 71% 29.97 in 10.0 mi Calm Calm - N/A   Mostly Cloudy
11:35 PM 42.8 °F 38.6 °F 35.6 °F 76% 29.97 in 10.0 mi NNE 6.9 mph - N/A   Mostly Cloudy
11:55 PM 44.6 °F - 37.4 °F 76% 29.97 in 10.0 mi Calm Calm - N/A   Scattered Clouds